WX4LTG Weather Reports


time (UTC)temp
C
wind
direction
speed
KPH
gust
KPH
rain 1hr
cm
rain 24hr
cm
rain mn
cm
humidity
%
barometer
mb
20260507164400 29 110 6.4 9.7 0.00 0.00 0.00 15 1013.5
20260507163857 28 87 0.0 9.7 0.00 0.00 0.00 15 1013.8
20260507163354 29 87 0.0 0.0 0.00 0.00 0.00 14 1013.8
20260507162851 28 95 0.0 0.0 0.00 0.00 0.00 15 1013.5
20260507162346 28 85 0.0 4.8 0.00 0.00 0.00 15 1013.6
20260507161844 27 79 0.0 3.2 0.00 0.00 0.00 15 1013.8
20260507161340 28 120 0.0 8.0 0.00 0.00 0.00 14 1014.0
20260507160837 28 104 1.6 4.8 0.00 0.00 0.00 15 1013.8
20260507160332 27 21 4.8 8.0 0.00 0.00 0.00 16 1014.2
20260507155829 27 75 3.2 8.0 0.00 0.00 0.00 16 1014.0
20260507155325 27 23 1.6 4.8 0.00 0.00 0.00 17 1014.1
20260507154822 27 90 0.0 8.0 0.00 0.00 0.00 18 1014.0
20260507154319 27 61 0.0 3.2 0.00 0.00 0.00 21 1013.9
20260507153816 27 90 0.0 4.8 0.00 0.00 0.00 21 1014.1
20260507153312 26 111 1.6 4.8 0.00 0.00 0.00 19 1014.1
20260507152809 26 83 0.0 0.0 0.00 0.00 0.00 24 1014.1
20260507152306 26 83 0.0 0.0 0.00 0.00 0.00 23 1013.9
20260507151801 25 78 0.0 0.0 0.00 0.00 0.00 24 1014.1
20260507151257 25 76 0.0 0.0 0.00 0.00 0.00 26 1014.1
20260507150754 25 85 0.0 0.0 0.00 0.00 0.00 28 1013.8
20260507150251 23 79 0.0 0.0 0.00 0.00 0.00 27 1014.0
20260507145747 23 63 0.0 1.6 0.00 0.00 0.00 29 1014.0
20260507145244 23 73 0.0 0.0 0.00 0.00 0.00 29 1014.2
20260507144741 23 73 0.0 0.0 0.00 0.00 0.00 30 1014.0
20260507144239 23 56 0.0 0.0 0.00 0.00 0.00 30 1013.9
20260507143735 22 66 0.0 0.0 0.00 0.00 0.00 31 1014.2
20260507143232 22 88 0.0 0.0 0.00 0.00 0.00 32 1013.8
20260507142728 22 58 0.0 0.0 0.00 0.00 0.00 32 1014.0
20260507142225 22 62 0.0 0.0 0.00 0.00 0.00 32 1014.2
20260507141721 21 90 0.0 0.0 0.00 0.00 0.00 35 1014.1
20260507141218 20 87 0.0 0.0 0.00 0.00 0.00 37 1014.0
20260507140714 20 79 0.0 0.0 0.00 0.00 0.00 38 1014.0
20260507140212 20 86 0.0 0.0 0.00 0.00 0.00 40 1013.9
20260507135709 19 82 0.0 0.0 0.00 0.00 0.00 40 1014.1
20260507135206 19 93 0.0 0.0 0.00 0.00 0.00 41 1014.0
20260507134702 19 84 0.0 0.0 0.00 0.00 0.00 40 1013.8
20260507134159 19 86 0.0 0.0 0.00 0.00 0.00 39 1014.0
20260507133654 18 95 0.0 0.0 0.00 0.00 0.00 45 1014.0
20260507133152 18 104 0.0 0.0 0.00 0.00 0.00 41 1013.9
20260507132649 17 88 0.0 0.0 0.00 0.00 0.00 41 1013.8
20260507132145 17 90 0.0 0.0 0.00 0.00 0.00 42 1013.8
20260507131643 17 90 0.0 0.0 0.00 0.00 0.00 42 1013.8
20260507131140 17 98 0.0 0.0 0.00 0.00 0.00 45 1013.6
20260507130636 16 99 0.0 0.0 0.00 0.00 0.00 45 1013.6
20260507130134 16 103 0.0 0.0 0.00 0.00 0.00 44 1013.5
20260507125633 16 89 0.0 0.0 0.00 0.00 0.00 44 1013.3
20260507125130 16 81 0.0 0.0 0.00 0.00 0.00 45 1013.5
20260507124626 15 81 0.0 0.0 0.00 0.00 0.00 46 1013.3
20260507124124 15 100 0.0 0.0 0.00 0.00 0.00 45 1013.2
20260507123622 16 102 0.0 0.0 0.00 0.00 0.00 45 1013.6
20260507123119 16 105 0.0 0.0 0.00 0.00 0.00 44 1013.4
20260507122614 16 111 0.0 1.6 0.00 0.00 0.00 44 1013.4
20260507122110 16 111 0.0 0.0 0.00 0.00 0.00 47 1013.4
20260507121606 16 102 0.0 0.0 0.00 0.00 0.00 47 1013.1
20260507121102 16 111 0.0 0.0 0.00 0.00 0.00 46 1013.2
20260507120558 16 102 0.0 0.0 0.00 0.00 0.00 50 1013.3
20260507120055 16 98 0.0 0.0 0.00 0.00 0.00 49 1013.2
20260507115551 16 85 0.0 0.0 0.00 0.00 0.00 47 1013.3
20260507115047 16 85 0.0 0.0 0.00 0.00 0.00 47 1013.3
20260507114543 16 90 0.0 0.0 0.00 0.00 0.00 47 1013.5
20260507114041 16 118 0.0 0.0 0.00 0.00 0.00 46 1013.2
20260507113538 16 82 0.0 0.0 0.00 0.00 0.00 46 1013.2
20260507113035 16 83 0.0 0.0 0.00 0.00 0.00 45 1013.2
20260507112533 16 86 0.0 0.0 0.00 0.00 0.00 47 1013.3
20260507112029 16 87 0.0 0.0 0.00 0.00 0.00 47 1013.4
20260507111527 16 83 0.0 0.0 0.00 0.00 0.00 46 1013.1
20260507111023 16 83 0.0 0.0 0.00 0.00 0.00 46 1013.4
20260507110519 17 80 0.0 0.0 0.00 0.00 0.00 45 1013.3
20260507110016 16 82 0.0 0.0 0.00 0.00 0.00 45 1013.4
20260507105513 17 73 0.0 0.0 0.00 0.00 0.00 44 1013.5
20260507105009 17 83 0.0 0.0 0.00 0.00 0.00 43 1013.3
20260507104507 17 88 0.0 0.0 0.00 0.00 0.00 42 1013.8
20260507104003 17 80 0.0 0.0 0.00 0.00 0.00 42 1013.6
20260507103500 17 92 0.0 0.0 0.00 0.00 0.00 43 1013.4
20260507102955 17 93 0.0 0.0 0.00 0.00 0.00 42 1013.8
20260507102452 17 96 0.0 0.0 0.00 0.00 0.00 41 1013.8
20260507101948 17 97 0.0 0.0 0.00 0.00 0.00 43 1013.6
20260507101443 17 98 0.0 0.0 0.00 0.00 0.00 42 1013.8
20260507100940 17 86 0.0 0.0 0.00 0.00 0.00 42 1013.6
20260507100438 17 88 0.0 0.0 0.00 0.00 0.00 40 1014.0
20260507095936 17 87 0.0 0.0 0.00 0.00 0.00 40 1014.0
20260507095433 17 102 0.0 0.0 0.00 0.00 0.00 40 1013.8
20260507094930 17 120 0.0 0.0 0.00 0.00 0.00 40 1014.1
20260507094426 18 89 0.0 0.0 0.00 0.00 0.00 39 1013.9
20260507093923 18 86 0.0 0.0 0.00 0.00 0.00 39 1014.1
20260507093421 18 84 0.0 0.0 0.00 0.00 0.00 40 1014.1
20260507092920 18 79 0.0 0.0 0.00 0.00 0.00 39 1014.2
20260507092415 18 89 0.0 0.0 0.00 0.00 0.00 40 1014.4
20260507091912 18 93 0.0 0.0 0.00 0.00 0.00 39 1014.1
20260507091408 18 81 0.0 0.0 0.00 0.00 0.00 40 1013.9
20260507090904 18 86 0.0 0.0 0.00 0.00 0.00 40 1014.1
20260507090401 18 86 0.0 0.0 0.00 0.00 0.00 41 1014.2
20260507085858 17 97 0.0 0.0 0.00 0.00 0.00 41 1014.3
20260507085354 18 90 0.0 0.0 0.00 0.00 0.00 41 1014.3
20260507084851 18 89 0.0 0.0 0.00 0.00 0.00 39 1014.3
20260507084348 18 78 0.0 0.0 0.00 0.00 0.00 39 1014.2
20260507083845 18 93 0.0 0.0 0.00 0.00 0.00 40 1014.3
20260507083341 18 98 0.0 0.0 0.00 0.00 0.00 40 1014.1
20260507082838 18 98 0.0 0.0 0.00 0.00 0.00 38 1014.1
20260507082334 19 88 0.0 0.0 0.00 0.00 0.00 37 1014.3
20260507081831 19 83 0.0 0.0 0.00 0.00 0.00 36 1014.3
20260507081327 19 85 0.0 0.0 0.00 0.00 0.00 38 1014.3
20260507080824 18 86 0.0 0.0 0.00 0.00 0.00 39 1014.2
20260507080320 18 96 0.0 0.0 0.00 0.00 0.00 39 1014.3
20260507075815 18 96 0.0 0.0 0.00 0.00 0.00 39 1014.1
20260507075312 19 93 0.0 0.0 0.00 0.00 0.00 38 1014.4
20260507074809 19 90 0.0 0.0 0.00 0.00 0.00 36 1014.3
20260507074306 20 89 0.0 0.0 0.00 0.00 0.00 37 1014.4
20260507073803 20 92 0.0 0.0 0.00 0.00 0.00 38 1014.3
20260507073300 20 81 0.0 0.0 0.00 0.00 0.00 39 1014.4
20260507072757 20 88 0.0 0.0 0.00 0.00 0.00 37 1014.3
20260507072254 20 82 0.0 0.0 0.00 0.00 0.00 35 1014.0
20260507071752 20 78 0.0 0.0 0.00 0.00 0.00 36 1014.2
20260507071248 20 73 0.0 0.0 0.00 0.00 0.00 37 1014.3
20260507070745 20 70 0.0 0.0 0.00 0.00 0.00 37 1014.2
20260507070242 20 85 0.0 0.0 0.00 0.00 0.00 38 1014.0
20260507065738 20 90 0.0 0.0 0.00 0.00 0.00 37 1014.1
20260507065235 21 88 0.0 0.0 0.00 0.00 0.00 38 1014.2
20260507064733 21 86 0.0 0.0 0.00 0.00 0.00 36 1014.1
20260507064232 21 84 0.0 0.0 0.00 0.00 0.00 36 1014.3
20260507063728 21 75 0.0 0.0 0.00 0.00 0.00 34 1014.1
20260507063225 22 73 0.0 0.0 0.00 0.00 0.00 30 1014.2
20260507062722 22 70 0.0 0.0 0.00 0.00 0.00 28 1014.3
20260507062220 22 92 0.0 0.0 0.00 0.00 0.00 28 1014.1
20260507061717 23 29 0.0 0.0 0.00 0.00 0.00 27 1014.1
20260507061215 23 149 0.0 0.0 0.00 0.00 0.00 27 1014.1
20260507060713 23 97 0.0 0.0 0.00 0.00 0.00 27 1014.4
20260507060209 23 305 0.0 0.0 0.00 0.00 0.00 27 1014.1
20260507055705 23 102 0.0 0.0 0.00 0.00 0.00 27 1014.0
20260507055201 23 344 0.0 0.0 0.00 0.00 0.00 26 1014.0
20260507054657 23 142 0.0 0.0 0.00 0.00 0.00 27 1014.2
20260507054154 23 237 0.0 1.6 0.00 0.00 0.00 27 1014.0
20260507053652 23 216 0.0 0.0 0.00 0.00 0.00 27 1014.0
20260507053150 23 73 0.0 0.0 0.00 0.00 0.00 27 1013.8
20260507052648 23 260 0.0 0.0 0.00 0.00 0.00 28 1014.1
20260507052144 23 160 0.0 0.0 0.00 0.00 0.00 28 1014.2
20260507051642 23 122 0.0 0.0 0.00 0.00 0.00 28 1014.3
20260507051138 23 105 0.0 0.0 0.00 0.00 0.00 28 1013.9
20260507050635 23 162 0.0 0.0 0.00 0.00 0.00 27 1014.0
20260507050132 23 79 0.0 0.0 0.00 0.00 0.00 28 1014.0
20260507045629 23 81 0.0 0.0 0.00 0.00 0.00 27 1014.0
20260507045126 23 12 0.0 0.0 0.00 0.00 0.00 27 1013.8
20260507044622 23 37 0.0 0.0 0.00 0.00 0.00 27 1013.9
20260507044120 24 6 0.0 0.0 0.00 0.00 0.00 27 1013.8
20260507043615 24 332 0.0 0.0 0.00 0.00 0.00 26 1014.0
20260507043113 24 9 0.0 0.0 0.00 0.00 0.00 26 1013.8
20260507042609 24 20 0.0 0.0 0.00 0.00 0.00 26 1014.0
20260507042104 25 54 0.0 0.0 0.00 0.00 0.00 25 1013.6
20260507041601 25 269 0.0 0.0 0.00 0.00 0.00 25 1013.5
20260507041058 25 133 0.0 0.0 0.00 0.00 0.00 25 1013.6
20260507040554 25 106 0.0 0.0 0.00 0.00 0.00 25 1013.4
20260507040051 25 85 0.0 0.0 0.00 0.00 0.00 25 1013.3
20260507035547 25 349 0.0 0.0 0.00 0.00 0.00 25 1013.2
20260507035043 25 133 0.0 1.6 0.00 0.00 0.00 25 1013.2
20260507034540 25 152 0.0 0.0 0.00 0.00 0.00 25 1013.1
20260507034038 25 1 0.0 1.6 0.00 0.00 0.00 24 1013.1
20260507033536 25 298 0.0 3.2 0.00 0.00 0.00 24 1013.3
20260507033033 26 249 0.0 3.2 0.00 0.00 0.00 24 1013.1
20260507032530 26 293 3.2 8.0 0.00 0.00 0.00 24 1013.0
20260507032026 26 53 0.0 0.0 0.00 0.00 0.00 24 1013.0
20260507031522 26 152 0.0 1.6 0.00 0.00 0.00 23 1013.0
20260507031020 26 217 0.0 1.6 0.00 0.00 0.00 23 1013.0
20260507030516 26 70 0.0 3.2 0.00 0.00 0.00 23 1013.0
20260507030014 26 250 1.6 8.0 0.00 0.00 0.00 23 1012.8
20260507025511 26 167 0.0 0.0 0.00 0.00 0.00 23 1012.8
20260507025009 26 116 0.0 0.0 0.00 0.00 0.00 23 1012.7
20260507024506 26 221 0.0 0.0 0.00 0.00 0.00 23 1012.6
20260507024002 26 145 0.0 3.2 0.00 0.00 0.00 23 1012.8
20260507023458 26 289 0.0 1.6 0.00 0.00 0.00 23 1012.7
20260507022956 26 216 0.0 0.0 0.00 0.00 0.00 23 1012.8
20260507022453 26 262 0.0 4.8 0.00 0.00 0.00 23 1012.4
20260507021948 26 241 4.8 8.0 0.00 0.00 0.00 22 1012.5
20260507021444 26 106 0.0 4.8 0.00 0.00 0.00 23 1012.5
20260507020941 27 216 1.6 4.8 0.00 0.00 0.00 22 1012.4
20260507020438 27 236 0.0 4.8 0.00 0.00 0.00 22 1012.4
20260507015935 27 242 3.2 9.7 0.00 0.00 0.00 22 1012.3
20260507015434 27 226 4.8 4.8 0.00 0.00 0.00 22 1012.4
20260507014930 27 242 1.6 3.2 0.00 0.00 0.00 22 1012.3
20260507014427 27 303 1.6 3.2 0.00 0.00 0.00 22 1012.4
20260507013923 27 164 0.0 3.2 0.00 0.00 0.00 21 1012.5
20260507013420 27 201 0.0 1.6 0.00 0.00 0.00 21 1012.2
20260507012918 27 248 6.4 9.7 0.00 0.00 0.00 21 1012.5
20260507012414 27 296 6.4 8.0 0.00 0.00 0.00 21 1012.2
20260507011911 28 196 0.0 0.0 0.00 0.00 0.00 21 1012.2
20260507011408 28 150 0.0 4.8 0.00 0.00 0.00 21 1012.3
20260507010907 28 275 3.2 4.8 0.00 0.00 0.00 21 1012.1
20260507010403 28 284 8.0 9.7 0.00 0.00 0.00 20 1012.2
20260507005901 28 348 0.0 0.0 0.00 0.00 0.00 20 1012.0
20260507005357 28 334 0.0 0.0 0.00 0.00 0.00 20 1012.2
20260507004854 28 273 0.0 4.8 0.00 0.00 0.00 20 1012.2
20260507004351 28 226 0.0 1.6 0.00 0.00 0.00 20 1012.2
20260507003850 28 294 0.0 3.2 0.00 0.00 0.00 20 1011.9
20260507003344 28 304 0.0 8.0 0.00 0.00 0.00 20 1012.1
20260507002839 28 296 6.4 11.3 0.00 0.00 0.00 21 1012.3
20260507002335 28 90 0.0 3.2 0.00 0.00 0.00 21 1012.3
20260507001833 28 95 0.0 3.2 0.00 0.00 0.00 21 1012.1
20260507001329 28 77 0.0 1.6 0.00 0.00 0.00 20 1012.2
20260507000825 28 71 0.0 0.0 0.00 0.00 0.00 21 1012.3
20260507000321 28 97 0.0 0.0 0.00 0.00 0.00 20 1012.3
20260506235818 28 320 3.2 8.0 0.00 0.00 0.00 21 1012.1
20260506235314 29 208 4.8 9.7 0.00 0.00 0.00 21 1012.1
20260506234811 29 98 0.0 0.0 0.00 0.00 0.00 20 1012.2
20260506234308 28 282 3.2 9.7 0.00 0.00 0.00 20 1012.3
20260506233806 28 65 0.0 0.0 0.00 0.00 0.00 21 1012.3
20260506233302 28 305 0.0 0.0 0.00 0.00 0.00 20 1012.2
20260506232759 28 299 3.2 12.9 0.00 0.00 0.00 21 1012.4
20260506232254 29 279 4.8 9.7 0.00 0.00 0.00 20 1012.4
20260506231751 28 125 0.0 0.0 0.00 0.00 0.00 20 1012.1
20260506231249 28 141 0.0 4.8 0.00 0.00 0.00 21 1012.4
20260506230746 28 173 0.0 0.0 0.00 0.00 0.00 20 1012.5
20260506230243 28 108 0.0 11.3 0.00 0.00 0.00 21 1012.4
20260506225739 28 277 4.8 11.3 0.00 0.00 0.00 21 1012.6
20260506225237 28 276 4.8 8.0 0.00 0.00 0.00 21 1012.5
20260506224733 28 56 0.0 1.6 0.00 0.00 0.00 21 1012.8
20260506224230 27 341 0.0 1.6 0.00 0.00 0.00 21 1012.7
20260506223726 27 296 3.2 12.9 0.00 0.00 0.00 22 1012.9
20260506223222 28 286 0.0 11.3 0.00 0.00 0.00 21 1012.8
20260506222719 28 175 0.0 1.6 0.00 0.00 0.00 21 1013.0
20260506222214 28 183 0.0 0.0 0.00 0.00 0.00 21 1012.8
20260506221713 27 222 4.8 8.0 0.00 0.00 0.00 22 1013.0
20260506221211 28 303 3.2 8.0 0.00 0.00 0.00 21 1013.2
20260506220707 28 186 0.0 8.0 0.00 0.00 0.00 21 1013.0
20260506220202 27 99 0.0 1.6 0.00 0.00 0.00 22 1013.2
20260506215659 27 300 0.0 0.0 0.00 0.00 0.00 22 1013.1
20260506215154 27 97 0.0 0.0 0.00 0.00 0.00 22 1013.2
20260506214651 27 300 4.8 9.7 0.00 0.00 0.00 22 1013.3
20260506214149 27 70 0.0 0.0 0.00 0.00 0.00 23 1013.3
20260506213647 26 49 0.0 8.0 0.00 0.00 0.00 23 1013.5
20260506213144 27 166 3.2 12.9 0.00 0.00 0.00 22 1013.4
20260506212642 27 300 8.0 14.5 0.00 0.00 0.00 22 1013.6
20260506212136 26 53 0.0 4.8 0.00 0.00 0.00 23 1013.8
20260506211632 26 176 0.0 3.2 0.00 0.00 0.00 23 1013.9
20260506211129 27 293 8.0 11.3 0.00 0.00 0.00 23 1014.0
20260506210626 27 247 4.8 9.7 0.00 0.00 0.00 22 1014.0
20260506210123 26 131 0.0 0.0 0.00 0.00 0.00 22 1013.9
20260506205619 26 45 0.0 0.0 0.00 0.00 0.00 23 1014.2
20260506205114 26 285 4.8 11.3 0.00 0.00 0.00 23 1014.2
20260506204612 25 312 0.0 3.2 0.00 0.00 0.00 24 1014.4
20260506204109 25 94 8.0 14.5 0.00 0.00 0.00 23 1014.3
20260506203608 26 48 3.2 4.8 0.00 0.00 0.00 23 1014.4
20260506203104 26 37 4.8 9.7 0.00 0.00 0.00 23 1014.5
20260506202602 26 293 4.8 8.0 0.00 0.00 0.00 23 1014.6
20260506202058 26 216 4.8 11.3 0.00 0.00 0.00 23 1014.7
20260506201555 26 325 4.8 12.9 0.00 0.00 0.00 23 1014.7
20260506201052 26 75 0.0 1.6 0.00 0.00 0.00 22 1014.7
20260506200548 26 320 1.6 4.8 0.00 0.00 0.00 22 1014.6
20260506200045 26 269 6.4 11.3 0.00 0.00 0.00 23 1014.6
20260506195541 26 34 1.6 11.3 0.00 0.00 0.00 23 1014.7
20260506195038 25 90 0.0 1.6 0.00 0.00 0.00 24 1014.9
20260506194536 25 257 9.7 11.3 0.00 0.00 0.00 24 1015.0
20260506194032 25 295 11.3 12.9 0.00 0.00 0.00 24 1015.0
20260506193529 25 340 6.4 16.1 0.00 0.00 0.00 25 1015.1
20260506193026 26 1 8.0 9.7 0.00 0.00 0.00 24 1015.3
20260506192523 25 72 1.6 8.0 0.00 0.00 0.00 24 1015.3
20260506192019 25 156 0.0 9.7 0.00 0.00 0.00 25 1015.4
20260506191516 25 277 4.8 4.8 0.00 0.00 0.00 24 1015.4
20260506191012 25 137 0.0 12.9 0.00 0.00 0.00 25 1015.4
20260506190509 25 97 0.0 3.2 0.00 0.00 0.00 25 1015.5
20260506190006 25 111 0.0 1.6 0.00 0.00 0.00 25 1015.6
20260506185504 25 76 0.0 4.8 0.00 0.00 0.00 25 1015.7
20260506185000 24 89 1.6 8.0 0.00 0.00 0.00 24 1015.9
20260506184457 25 42 0.0 3.2 0.00 0.00 0.00 26 1015.9
20260506183954 24 287 6.4 9.7 0.00 0.00 0.00 26 1016.0
20260506183450 25 30 0.0 8.0 0.00 0.00 0.00 26 1015.9
20260506182947 25 114 0.0 4.8 0.00 0.00 0.00 27 1016.1
20260506182444 24 53 0.0 4.8 0.00 0.00 0.00 28 1016.3
20260506181941 23 65 0.0 0.0 0.00 0.00 0.00 28 1016.2
20260506181439 24 187 0.0 3.2 0.00 0.00 0.00 28 1016.3
20260506180936 23 11 0.0 11.3 0.00 0.00 0.00 29 1016.4
20260506180432 23 218 1.6 9.7 0.00 0.00 0.00 29 1016.3
20260506175929 23 355 0.0 0.0 0.00 0.00 0.00 30 1016.3
20260506175426 23 73 0.0 8.0 0.00 0.00 0.00 30 1016.6
20260506174923 23 57 0.0 1.6 0.00 0.00 0.00 30 1016.3
20260506174420 24 138 0.0 1.6 0.00 0.00 0.00 29 1016.4
20260506173917 23 50 0.0 0.0 0.00 0.00 0.00 30 1016.4
20260506173414 23 92 0.0 8.0 0.00 0.00 0.00 31 1016.6
20260506172911 23 305 1.6 8.0 0.00 0.00 0.00 31 1016.3
20260506172408 22 294 6.4 9.7 0.00 0.00 0.00 32 1016.6
20260506171905 22 355 3.2 9.7 0.00 0.00 0.00 32 1016.4
20260506171402 22 177 1.6 9.7 0.00 0.00 0.00 31 1016.3
20260506170900 22 228 0.0 3.2 0.00 0.00 0.00 32 1016.3
20260506170356 22 85 0.0 4.8 0.00 0.00 0.00 33 1016.3
20260506165855 22 100 0.0 3.2 0.00 0.00 0.00 32 1016.2
20260506165353 22 2 0.0 4.8 0.00 0.00 0.00 32 1016.4
20260506164849 22 117 0.0 3.2 0.00 0.00 0.00 33 1016.2